Plymouth, NH

2:37 PM EDT on September 26, 2017 (GMT -0400)
Plymouth

Weather History for K1P1 - March, 2014

Change the Weather History Date:

Saturday, March 8, 2014

  Actual Average (KLCI) Record (KLCI)
Temperature  
Mean Temperature 24 °F -  
Max Temperature 44 °F 36 °F 64 °F (2012)
Min Temperature 5 °F 15 °F -4 °F (1989)
Degree Days  
Heating Degree Days 40    
Moisture  
Dew Point 15 °F    
Average Humidity 67    
Maximum Humidity 92    
Minimum Humidity 38    
Precipitation  
Precipitation 0.00 in - - ()
Sea Level Pressure  
Sea Level Pressure 29.81 in    
Wind  
Wind Speed 4 mph (WNW)    
Max Wind Speed 15 mph    
Max Gust Speed 24 mph    
Visibility 10 miles    
Events      
Averages and records for this station are not official NWS values.
T = Trace of Precipitation, MM = Missing Value Source: NWS Daily Summary

Daily Weather History Graph

Daily Weather History Graph

Search for Another Location

Airport or City:

Trip Planner

Search our weather history database for the weather conditions in past years. The results will help you decide how hot, cold, wet, or windy it might be!

Date:

Astronomy

Mar. 08, 2014 Rise Set
Actual Time 6:11 AM EST 5:44 PM EST
Civil Twilight 5:43 AM EST 6:13 PM EST
Nautical Twilight 5:09 AM EST 6:46 PM EST
Astronomical Twilight 4:36 AM EST 7:20 PM EST
Moon 10:38 AM EST (3/8) 12:51 AM EST (3/8)
Length of Visible Light 12h 30m
Length of Day
11h 32m
First Quarter, 51% of the Moon is Illuminated
Mar 8
First Quarter
Mar 16
Full
Mar 23
Last Quarter
Mar 30
New
Apr 7
First Quarter

Hourly Weather History & Observations

Time (EST) Temp. Windchill Dew Point Humidity Pressure Visibility Wind Dir Wind Speed Gust Speed Precip Events Conditions
12:15 AM 13.5 °F - 11.3 °F 91% 29.95 in 10.0 mi Calm Calm - N/A   Unknown
12:35 AM 12.4 °F - 9.7 °F 89% 29.94 in 10.0 mi Calm Calm - N/A   Unknown
12:55 AM 12.2 °F - 10.2 °F 92% 29.94 in 10.0 mi Calm Calm - N/A   Unknown
1:35 AM 10.6 °F - 8.2 °F 90% 29.91 in 10.0 mi Calm Calm - N/A   Unknown
1:55 AM 10.8 °F - 8.6 °F 91% 29.91 in 10.0 mi Calm Calm - N/A   Unknown
2:15 AM 10.4 °F - 8.4 °F 92% 29.89 in 10.0 mi Calm Calm - N/A   Unknown
2:35 AM 10.0 °F - 7.9 °F 91% 29.88 in 10.0 mi Calm Calm - N/A   Unknown
2:55 AM 9.7 °F - 7.7 °F 92% 29.87 in 10.0 mi Calm Calm - N/A   Unknown
3:35 AM 8.8 °F - 6.6 °F 91% 29.86 in 10.0 mi Calm Calm - N/A   Unknown
3:55 AM 8.1 °F - 5.7 °F 90% 29.85 in 10.0 mi Calm Calm - N/A   Unknown
4:15 AM 7.7 °F - 5.5 °F 91% 29.84 in 10.0 mi Calm Calm - N/A   Unknown
4:35 AM 7.5 °F - 4.8 °F 89% 29.83 in 10.0 mi Calm Calm - N/A   Unknown
4:55 AM 7.7 °F - 5.0 °F 89% 29.83 in 10.0 mi Calm Calm - N/A   Unknown
5:15 AM 7.2 °F - 4.5 °F 89% 29.82 in 10.0 mi Calm Calm - N/A   Unknown
5:35 AM 6.8 °F - 4.3 °F 89% 29.82 in 10.0 mi Calm Calm - N/A   Unknown
5:55 AM 5.9 °F - 3.2 °F 89% 29.82 in 10.0 mi Calm Calm - N/A   Unknown
6:15 AM 6.6 °F - 4.1 °F 89% 29.81 in 10.0 mi Calm Calm - N/A   Unknown
6:35 AM 7.2 °F - 4.5 °F 89% 29.81 in 10.0 mi Calm Calm - N/A   Unknown
6:55 AM 9.7 °F - 7.3 °F 90% 29.80 in 10.0 mi Calm Calm - N/A   Unknown
7:15 AM 10.6 °F - 8.1 °F 90% 29.80 in 10.0 mi Calm Calm - N/A   Unknown
7:35 AM 12.2 °F - 9.9 °F 90% 29.80 in 10.0 mi Calm Calm - N/A   Unknown
7:55 AM 13.8 °F - 11.5 °F 90% 29.80 in 10.0 mi Calm Calm - N/A   Unknown
8:15 AM 14.9 °F - 12.7 °F 91% 29.79 in 10.0 mi Calm Calm - N/A   Unknown
8:35 AM 17.1 °F - 14.0 °F 88% 29.79 in 10.0 mi Calm Calm - N/A   Unknown
8:55 AM 18.7 °F - 13.3 °F 79% 29.79 in 10.0 mi Calm Calm - N/A   Unknown
9:15 AM 20.8 °F - 12.2 °F 69% 29.78 in 10.0 mi Calm Calm - N/A   Unknown
9:35 AM 22.8 °F - 13.5 °F 67% 29.78 in 10.0 mi Calm Calm - N/A   Unknown
9:55 AM 25.2 °F - 15.1 °F 66% 29.76 in 10.0 mi Calm Calm - N/A   Unknown
10:15 AM 28.2 °F - 15.4 °F 59% 29.76 in 10.0 mi Calm Calm - N/A   Unknown
10:35 AM 31.8 °F - 17.1 °F 55% 29.75 in 10.0 mi Calm Calm - N/A   Unknown
10:55 AM 34.9 °F - 18.3 °F 51% 29.74 in 10.0 mi Calm Calm - N/A   Unknown
11:15 AM 42.4 °F 36.1 °F 20.1 °F 41% 29.74 in 10.0 mi West 11.5 mph - N/A   Unknown
11:35 AM 44.1 °F 37.7 °F 20.1 °F 39% 29.73 in 10.0 mi West 12.7 mph 16.1 mph N/A   Unknown
11:55 AM 44.6 °F 37.8 °F 20.1 °F 38% 29.73 in 10.0 mi West 15.0 mph 23.0 mph N/A   Unknown
12:15 PM 44.6 °F 38.8 °F 20.7 °F 39% 29.73 in 10.0 mi West 11.5 mph 20.7 mph N/A   Unknown
12:35 PM 44.4 °F 37.9 °F 20.8 °F 39% 29.73 in 10.0 mi West 13.8 mph 19.6 mph N/A   Unknown
12:55 PM 43.7 °F 36.6 °F 20.7 °F 40% 29.72 in 10.0 mi WNW 15.0 mph 21.9 mph N/A   Unknown
1:15 PM 44.1 °F 37.4 °F 20.1 °F 39% 29.72 in 10.0 mi West 13.8 mph 23.0 mph N/A   Unknown
1:35 PM 44.6 °F 37.8 °F 20.8 °F 39% 29.71 in 10.0 mi WNW 15.0 mph 20.7 mph N/A   Unknown
1:55 PM 43.2 °F 36.2 °F 21.2 °F 42% 29.72 in 10.0 mi WNW 13.8 mph 19.6 mph N/A   Unknown
2:15 PM 41.5 °F 34.6 °F 21.9 °F 46% 29.73 in 10.0 mi WNW 12.7 mph 24.2 mph N/A   Unknown
2:35 PM 41.2 °F 33.4 °F 23.0 °F 48% 29.74 in 10.0 mi NW 15.0 mph 20.7 mph N/A   Unknown
2:55 PM 40.3 °F 33.9 °F 23.5 °F 51% 29.74 in 10.0 mi WNW 10.4 mph 18.4 mph N/A   Unknown
3:15 PM 39.7 °F 34.3 °F 24.6 °F 55% 29.75 in 10.0 mi NW 8.1 mph 18.4 mph N/A   Unknown
3:35 PM 39.7 °F 32.7 °F 24.8 °F 55% 29.75 in 10.0 mi NNW 11.5 mph - N/A   Unknown
3:55 PM 38.3 °F 30.9 °F 25.0 °F 59% 29.76 in 10.0 mi NW 11.5 mph 18.4 mph N/A   Unknown
4:15 PM 37.8 °F 29.8 °F 25.2 °F 60% 29.76 in 10.0 mi NW 12.7 mph 20.7 mph N/A   Unknown
4:35 PM 37.4 °F 30.3 °F 25.2 °F 61% 29.77 in 10.0 mi NW 10.4 mph - N/A   Unknown
4:55 PM 36.7 °F 29.4 °F 24.6 °F 62% 29.77 in 10.0 mi WNW 10.4 mph - N/A   Unknown
5:15 PM 36.0 °F 27.1 °F 24.3 °F 63% 29.78 in 10.0 mi NW 13.8 mph 24.2 mph N/A   Unknown
5:35 PM 35.6 °F 28.6 °F 24.3 °F 63% 29.79 in 10.0 mi NW 9.2 mph 18.4 mph N/A   Unknown
5:55 PM 35.1 °F 28.6 °F 24.3 °F 65% 29.80 in 10.0 mi WNW 8.1 mph - N/A   Unknown
6:15 PM 34.5 °F 26.2 °F 23.2 °F 63% 29.82 in 10.0 mi WNW 11.5 mph 17.3 mph N/A   Unknown
6:35 PM 34.0 °F 25.5 °F 22.6 °F 63% 29.83 in 10.0 mi NW 11.5 mph 20.7 mph N/A   Unknown
6:55 PM 33.4 °F 24.8 °F 22.1 °F 63% 29.83 in 10.0 mi WNW 11.5 mph 18.4 mph N/A   Unknown
7:15 PM 32.4 °F 24.0 °F 20.8 °F 63% 29.84 in 10.0 mi WNW 10.4 mph 17.3 mph N/A   Unknown
7:35 PM 32.0 °F 24.2 °F 20.7 °F 63% 29.84 in 10.0 mi WNW 9.2 mph 16.1 mph N/A   Unknown
7:55 PM 31.1 °F 23.7 °F 19.4 °F 62% 29.84 in 10.0 mi West 8.1 mph - N/A   Unknown
8:15 PM 30.7 °F 22.0 °F 19.2 °F 62% 29.85 in 10.0 mi West 10.4 mph - N/A   Unknown
8:35 PM 30.4 °F 20.0 °F 18.5 °F 61% 29.85 in 10.0 mi West 13.8 mph 18.4 mph N/A   Unknown
8:55 PM 29.8 °F 21.5 °F 18.0 °F 61% 29.84 in 10.0 mi WNW 9.2 mph 17.3 mph N/A   Unknown
9:15 PM 29.7 °F 22.8 °F 16.5 °F 58% 29.85 in 10.0 mi WNW 6.9 mph - N/A   Unknown
9:35 PM 29.3 °F 19.6 °F 15.8 °F 57% 29.85 in 10.0 mi WNW 11.5 mph 16.1 mph N/A   Unknown
9:55 PM 29.3 °F 21.5 °F 15.3 °F 56% 29.86 in 10.0 mi West 8.1 mph - N/A   Unknown
10:15 PM 29.1 °F 20.6 °F 14.4 °F 54% 29.86 in 10.0 mi WNW 9.2 mph - N/A   Unknown
10:35 PM 28.9 °F 20.4 °F 13.6 °F 53% 29.85 in 10.0 mi WNW 9.2 mph - N/A   Unknown
10:55 PM 28.4 °F 20.4 °F 13.5 °F 54% 29.86 in 10.0 mi West 8.1 mph - N/A   Unknown
11:15 PM 28.4 °F 19.7 °F 13.1 °F 53% 29.86 in 10.0 mi WNW 9.2 mph - N/A   Unknown
11:35 PM 28.0 °F 20.0 °F 12.6 °F 52% 29.86 in 10.0 mi WNW 8.1 mph - N/A   Unknown
11:55 PM 27.9 °F 20.6 °F 12.2 °F 52% 29.86 in 10.0 mi West 6.9 mph - N/A   Unknown